Flag for Canada Weather past 2 weeks in Vancouver, British Columbia, Canada

Now
45 °F

Partly cloudy.


Feels Like: 42 °F
Forecast: 41 / 48 °F
Wind: 5 mph from Southeast

Location: Vancouver International Air-Port

Current Time: Jan 28, 2015 at 5:16:09 AM

Latest Report: Jan 28, 2015 at 4:00 AM


Visibility: 15 mi

Pressure: 30.34 "Hg

Humidity: 93%

Dew point: 43 °F

Location of VancouverLocation

Historic Weather in Vancouver — Graph

°F

Vancouver temperature yesterday

Maximum temperature yesterday: 52 °F (at 12:00 PM)
Minimum temperature yesterday: 43 °F (at 11:00 PM)
Average temperature yesterday: 47 °F

Past Weeks' High & Low Weather Summary

 TemperatureHumidityPressure
High57 °F (Jan 25, 1:00 PM)100% (Jan 13, 4:00 AM)30.50 "Hg (Jan 13, 4:00 AM)
Low28 °F (Jan 14, 3:00 AM)62% (Jan 16, 3:00 PM)29.46 "Hg (Jan 18, 1:00 AM)
Average44 °F92%30.17 "Hg
* Reported Jan 13 4:00 AM — Jan 28 4:00 AM, Vancouver, Weather by CustomWeather, © 2014

Note: Actual official high and low records may vary slightly from our data, if they occured in-between our weather recording intervals... More about our weather records

Advertising

Vancouver weather history for previous 24 hours

 ConditionsComfort  
Time TempWeatherWind HumidityBarometerVisibility
4:00 AM
Jan 28
45 °FPartly cloudy.5 mph93%30.34 "Hg15 mi
3:00 AM43 °FPartly cloudy.6 mph93%30.32 "Hg15 mi
2:00 AM45 °FPassing clouds.3 mph93%30.30 "Hg15 mi
1:00 AM45 °FPartly cloudy.5 mph93%30.28 "Hg15 mi
12:00 AM43 °FPartly cloudy.5 mph100%30.27 "Hg15 mi
11:00 PM
Jan 27
43 °FPartly cloudy.3 mph100%30.25 "Hg15 mi
10:00 PM46 °FMostly cloudy.5 mph93%30.23 "Hg10 mi
9:00 PM46 °FMostly cloudy.8 mph93%30.20 "Hg10 mi
8:00 PM46 °FMostly cloudy.6 mph93%30.17 "Hg12 mi
7:00 PM46 °FMostly cloudy.8 mph100%30.16 "Hg12 mi
6:00 PM46 °FMostly cloudy.6 mph100%30.14 "Hg15 mi
5:00 PM46 °FMostly cloudy.8 mph93%30.12 "Hg15 mi
4:00 PM48 °FMostly cloudy.9 mph94%30.10 "Hg15 mi
3:00 PM50 °FCloudy.7 mph94%30.09 "Hg15 mi
2:00 PM52 °FMostly cloudy.8 mph88%30.07 "Hg15 mi
1:00 PM52 °FMore clouds than sun.8 mph94%30.07 "Hg15 mi
12:00 PM52 °FCloudy.7 mph88%30.06 "Hg15 mi
11:00 AM50 °FMostly cloudy.12 mph94%30.06 "Hg15 mi
10:00 AM50 °FMostly cloudy.10 mph94%30.04 "Hg15 mi
9:00 AM48 °FCloudy.8 mph94%30.03 "Hg15 mi
8:00 AM46 °FMostly cloudy.7 mph100%30.01 "Hg15 mi
7:00 AM46 °FOvercast.6 mph93%29.99 "Hg15 mi
6:00 AM46 °FOvercast.8 mph93%29.98 "Hg15 mi
5:00 AM45 °FPartly cloudy.5 mph100%29.98 "Hg15 mi
Weather by CustomWeather, © 2014

See weather overviewHow to use our weather pages